Погода в Мяделе

Беларусь     54°52′15″N   26°55′39″E
темп.,
°C
ветер,
м/с
пор.,
м/с
влажн.,
%
обл.,
%
осадки,
мм/ч
давл.,
гПа
погр.,
м
21 января, пт
пт2100:00−4юз81587100 0.0 992898
03:00−3зюз61295100 1.3 9891055
06:00−3з71493100 1.6 989980
09:00−3зсз71391100 1.9 991967
12:00−3сз71292100 0.5 9931026
15:00−2сз71287100 1.0 9951088
18:00−3сз71389100 0.4 9971111
21:00−3сз71390100 0.5 998981
22 января, сб
сб2200:00−4сз61293100 0.4 1001914
03:00−4ссз41093100 0.7 1002632
06:00−6с51191100 0.1 1005587
09:00−7ссз51193100 0.1 1009557
12:00−5ссз51187100 0.1 1012645
15:00−4сз51192100 0.3 1013775
18:00−4ссз61088100 0.3 1015856
21:00−6ссз51194100 0.4 1016735
23 января, вс
вс2300:00−6с41093100 0.3 1019563
03:00−8с4994100 0.3 1021452
06:00−10с3897100 0.1 1023245
09:00−11с389772 0.1 1026186
12:00−9ссв368951 0.0 1029244
15:00−7ссв348672 0.0 1031321
18:00−11св229760 0.0 103316
21:00−13ссв119865 0.0 10359
24 января, пн
пн2400:00−13вюв229760 0.0 103733
03:00−14ю119865 0.0 103713
06:00−14ююз119862 0.0 103716
09:00−14ююз229758 0.0 103841
12:00−8ююз35865 0.0 1037180
15:00−6ююз36815 0.0 1036321
18:00−9ююз38945 0.0 1035177
21:00−9ююз411935 0.0 1034251
25 января, вт
вт2500:00−9ююз413915 0.0 1032295
03:00−8ююз5138838 0.0 1030315
06:00−7ююз51394100 0.3 1028327
09:00−5юз51194100 0.6 1026382
12:00−3юз51194100 0.1 1024367
15:00−1зюз41196100 0.9 1021491
18:000сз4997100 0.9 1022660
21:00−2ссз5108693 0.9 1023717